Location: Unspecified
(0.0000°N, 0.0000°E)
Time: 21:01:57
(UTC+00:00)

ARIANE 1 DEB - Pass Details

Date: 24 February 2026
Orbit: 376 x 19604 km, 19.8° (Epoch: 20 January)

Event Time Altitude Azimuth Distance (km) Brightness Sun altitude
Rises 16:14:48 0° 287° (WNW) 21,238 ? 29.2°
Reaches altitude 10° 17:11:39 10° 291° (WNW) 23,802 ? 15.2°
Maximum altitude 20:02:56 88° 203° (SSW) 3,379 ? -27.1°
Enters shadow 20:09:16 38° 114° (ESE) 2,904 ? -28.6°
